This is the latest recevied weather packets stored in our database for station/object N0EDB-13. If no packets are shown the sender has not sent any weather packets the latest 10 day(s).
| Time | Temp. | Humidity | Pressure | Rain* | Wind** | Luminosity | Snow |
|---|---|---|---|---|---|---|---|
| 1777843597 | 23.89° C | 16% | 1458.9 hPa | 0 mm | - | 332 W/m² | - |
| 1777843297 | 23.89° C | 15% | 1458.7 hPa | 0 mm | - | 362 W/m² | - |
| 1777842996 | 23.89° C | 15% | 1458 hPa | 0 mm | - | 392 W/m² | - |
| 1777842696 | 24.44° C | 15% | 1457.6 hPa | 0 mm | - | 304 W/m² | - |
| 1777842395 | 24.44° C | 16% | 1457.3 hPa | 0 mm | - | 317 W/m² | - |
| 1777842094 | 25° C | 15% | 1456.4 hPa | 0 mm | - | 394 W/m² | - |
| 1777841793 | 25° C | 16% | 1455.6 hPa | 0 mm | - | 647 W/m² | - |
| 1777841492 | 25° C | 16% | 1456.7 hPa | 0 mm | - | 847 W/m² | - |
| 1777841191 | 24.44° C | 16% | 1457.4 hPa | 0 mm | - | 907 W/m² | - |
| 1777840890 | 24.44° C | 16% | 1458.5 hPa | 0 mm | - | 688 W/m² | - |
| 1777840590 | 23.89° C | 16% | 1458.9 hPa | 0 mm | - | 424 W/m² | - |
| 1777840290 | 24.44° C | 16% | 1458.5 hPa | 0 mm | - | 490 W/m² | - |
| 1777839990 | 24.44° C | 16% | 1458.3 hPa | 0 mm | - | 608 W/m² | - |
| 1777839688 | 25° C | 16% | 1457.4 hPa | 0 mm | - | 484 W/m² | - |
| 1777839388 | 25.56° C | 16% | 1456.2 hPa | 0 mm | - | 698 W/m² | - |
| 1777839088 | 25.56° C | 15% | 1455.2 hPa | 0 mm | - | 491 W/m² | - |
| 1777838787 | 25.56° C | 16% | 1455.7 hPa | 0 mm | - | 507 W/m² | - |
| 1777838486 | 25.56° C | 15% | 1455.3 hPa | 0 mm | - | 982 W/m² | - |
| 1777838186 | 25.56° C | 16% | 1455.9 hPa | 0 mm | - | 999 W/m² | - |
| 1777837885 | 25° C | 16% | 1457 hPa | 0 mm | - | 999 W/m² | - |
| 1777837584 | 25° C | 16% | 1458 hPa | 0 mm | - | 999 W/m² | - |
| 1777837283 | 24.44° C | 17% | 1458.5 hPa | 0 mm | - | 999 W/m² | - |
| 1777836983 | 24.44° C | 17% | 1459 hPa | 0 mm | - | 999 W/m² | - |
| 1777836683 | 24.44° C | 17% | 1459.1 hPa | 0 mm | - | 954 W/m² | - |
| 1777836382 | 24.44° C | 17% | 1458.8 hPa | 0 mm | - | 771 W/m² | - |
* Rain latest hour (hover to see other rain measurements)
** Current wind speed in m/s (hover to see current wind gust speed)